VOE55G LICA-LICD

Flight info

Callsign VOE55G
Flight time N/A
Altitude 19000
Route CDC L137 NELDA/N0439F350 DCT DIRKA/N0430F290 N982 GZO/N0431F300 P624 LUZOT
Aircraft A320/M-SDE3FGHIRWY/LB1

Departure

Time N/A
Airport Lamezia Terme Sant'Eufemia International Airport (LICA)

Arrival

Time 2026-04-17 11:49
Airport Lampedusa Airport (LICD)
Time Latitude Longitude Altitude Speed Heading
2026-04-17 11:31 36.40242 13.87910 22736 ft 415 kts 223°
2026-04-17 11:31 36.38553 13.86037 22364 ft 411 kts 223°
2026-04-17 11:31 36.36411 13.83665 21885 ft 407 kts 223°
2026-04-17 11:31 36.34372 13.81409 21415 ft 404 kts 223°
2026-04-17 11:32 36.32510 13.79349 20991 ft 401 kts 223°
2026-04-17 11:32 36.30428 13.77049 20523 ft 398 kts 222°
2026-04-17 11:32 36.28451 13.74867 20068 ft 395 kts 222°
2026-04-17 11:32 36.26401 13.72604 19597 ft 392 kts 222°
2026-04-17 11:33 36.24427 13.70428 19133 ft 390 kts 222°
2026-04-17 11:33 36.22404 13.68201 18665 ft 387 kts 222°
2026-04-17 11:33 36.20389 13.65983 18204 ft 385 kts 222°
2026-04-17 11:33 36.18387 13.63782 17756 ft 382 kts 222°
2026-04-17 11:34 36.16369 13.61564 17291 ft 380 kts 222°
2026-04-17 11:34 36.14482 13.59492 16850 ft 378 kts 222°
2026-04-17 11:34 36.12520 13.57337 16386 ft 376 kts 222°
2026-04-17 11:34 36.10656 13.55291 15949 ft 374 kts 222°
2026-04-17 11:35 36.08718 13.53167 15484 ft 373 kts 222°
2026-04-17 11:35 36.06741 13.51002 15014 ft 371 kts 222°
2026-04-17 11:35 36.04839 13.48920 14554 ft 369 kts 222°
2026-04-17 11:35 36.02903 13.46802 14089 ft 367 kts 222°
2026-04-17 11:36 36.01058 13.44786 13646 ft 365 kts 222°
2026-04-17 11:36 35.99206 13.42762 13203 ft 362 kts 222°
2026-04-17 11:36 35.97316 13.40696 12747 ft 360 kts 222°
2026-04-17 11:36 35.95445 13.38654 12294 ft 357 kts 221°
2026-04-17 11:37 35.93598 13.36639 11847 ft 354 kts 221°
2026-04-17 11:37 35.92092 13.34998 11481 ft 351 kts 221°
2026-04-17 11:37 35.90373 13.33124 11064 ft 348 kts 220°
2026-04-17 11:37 35.89379 13.32043 10821 ft 347 kts 220°
2026-04-17 11:38 35.87812 13.30338 10441 ft 344 kts 220°
2026-04-17 11:38 35.85970 13.28334 10198 ft 332 kts 220°
2026-04-17 11:38 35.84458 13.26690 10130 ft 318 kts 220°
2026-04-17 11:38 35.82927 13.25025 10066 ft 305 kts 220°
2026-04-17 11:39 35.81643 13.23630 9815 ft 302 kts 220°
2026-04-17 11:39 35.80194 13.22059 9457 ft 300 kts 220°
2026-04-17 11:39 35.78619 13.20351 9081 ft 298 kts 220°
2026-04-17 11:39 35.77075 13.18681 8726 ft 296 kts 220°
2026-04-17 11:40 35.75523 13.17000 8365 ft 294 kts 220°
2026-04-17 11:40 35.73997 13.15348 8015 ft 291 kts 220°
2026-04-17 11:40 35.72465 13.13689 7669 ft 289 kts 221°
2026-04-17 11:40 35.70968 13.12068 7332 ft 286 kts 221°
2026-04-17 11:41 35.69727 13.10726 7051 ft 284 kts 221°
2026-04-17 11:41 35.68241 13.09120 6709 ft 282 kts 221°
2026-04-17 11:41 35.66827 13.07592 6552 ft 273 kts 221°
2026-04-17 11:41 35.65432 13.06080 6542 ft 258 kts 222°
2026-04-17 11:42 35.64194 13.04540 6497 ft 246 kts 229°
2026-04-17 11:42 35.63137 13.02958 6198 ft 251 kts 232°
2026-04-17 11:42 35.62019 13.01208 5863 ft 265 kts 232°
2026-04-17 11:42 35.60899 12.99449 5547 ft 266 kts 232°
2026-04-17 11:43 35.59743 12.97638 5233 ft 265 kts 232°
2026-04-17 11:43 35.58627 12.95894 4941 ft 264 kts 232°
2026-04-17 11:43 35.57633 12.94345 4681 ft 263 kts 232°
2026-04-17 11:43 35.56546 12.92655 4398 ft 262 kts 233°
2026-04-17 11:44 35.55408 12.90886 4105 ft 260 kts 233°
2026-04-17 11:44 35.54299 12.89164 3858 ft 255 kts 233°
2026-04-17 11:44 35.53317 12.87484 3601 ft 250 kts 246°
2026-04-17 11:44 35.52862 12.85470 3349 ft 243 kts 263°
2026-04-17 11:45 35.52611 12.83404 3087 ft 240 kts 264°
2026-04-17 11:45 35.52423 12.81801 2951 ft 234 kts 264°
2026-04-17 11:45 35.52193 12.79935 2803 ft 226 kts 264°
2026-04-17 11:45 35.51992 12.78367 2578 ft 225 kts 264°
2026-04-17 11:46 35.51764 12.76621 2266 ft 218 kts 264°
2026-04-17 11:46 35.51523 12.74812 1969 ft 209 kts 265°
2026-04-17 11:46 35.51313 12.73256 1778 ft 194 kts 265°
2026-04-17 11:46 35.51100 12.71684 1545 ft 173 kts 266°
2026-04-17 11:47 35.50927 12.70403 1290 ft 161 kts 266°
2026-04-17 11:47 35.50804 12.69492 1120 ft 151 kts 267°
2026-04-17 11:47 35.50664 12.68273 905 ft 137 kts 265°
2026-04-17 11:47 35.50494 12.67193 699 ft 132 kts 267°
2026-04-17 11:48 35.50449 12.66875 662 ft 132 kts 268°
2026-04-17 11:48 35.50317 12.65820 540 ft 132 kts 268°
2026-04-17 11:48 35.50177 12.64701 409 ft 130 kts 269°
2026-04-17 11:48 35.50069 12.63859 259 ft 131 kts 268°
2026-04-17 11:49 35.49934 12.62840 94 ft 128 kts 268°
2026-04-17 11:49 35.49835 12.62112 52 ft 115 kts 263°
2026-04-17 11:49 35.49770 12.61605 47 ft 51 kts 257°
2026-04-17 11:49 35.49748 12.61432 43 ft 13 kts 261°
2026-04-17 11:50 35.49655 12.60824 38 ft 9 kts 245°